Home > Weather > Germantown > Past weeks

Flag for USA Past Weather in Germantown, Maryland, USA — Yesterday and Last 2 Weeks

Now
86 °F

Sunny.


Feels Like: 93 °F
Forecast: 73 / 96 °F
Wind: 8 mph from West

Location: Frederick Municipal Airport

Current Time: Jul 23, 2016 at 11:15:27 AM

Latest Report: Jul 23, 2016 at 9:55 AM


Visibility: 10 mi

Pressure: 29.99 "Hg

Humidity: 66%

Dew Point: 73 °F

Location of GermantownLocation

Past Weather in Germantown — Graph

°F

Germantown Temperature Yesterday

Maximum temperature yesterday: 93 °F (at 3:55 PM)
Minimum temperature yesterday: 64 °F (at 4:45 AM)
Average temperature yesterday: 76 °F

High & Low Weather Summary for the Past Weeks

 TemperatureHumidityPressure
High93 °F (Jul 14, 1:46 PM)100% (Jul 8, 11:10 PM)30.27 "Hg (Jul 8, 11:10 PM)
Low57 °F (Jul 11, 5:35 AM)24% (Jul 17, 4:47 PM)29.80 "Hg (Jul 8, 4:47 PM)
Average75 °F81%30.05 "Hg
* Reported Jul 8 9:50 AM — Jul 23 9:55 AM, Germantown, Weather by CustomWeather, © 2016

Note: Actual official high and low records may vary slightly from our data, if they occured in-between our weather recording intervals... More about our weather records

Advertising

Germantown Weather History for the Previous 24 Hours

Scroll right to see more
 ConditionsComfort  
Time TempWeatherWind HumidityBarometerVisibility
9:55 AM
Sat, Jul 23
86 °FSunny.8 mph66%29.99 "Hg10 mi
8:50 AM84 °FSunny.6 mph66%29.99 "Hg10 mi
7:47 AM82 °FSunny.3 mph70%29.99 "Hg10 mi
6:47 AM79 °FClear.8 mph79%29.99 "Hg10 mi
6:10 AM77 °FClear.8 mph83%29.98 "Hg10 mi
5:50 AM77 °FClear.9 mph83%29.97 "Hg10 mi
5:30 AM72 °FClear.No wind100%29.97 "Hg10 mi
5:10 AM75 °FClear.No wind83%29.97 "Hg10 mi
4:50 AM77 °FClear.No wind83%29.97 "Hg10 mi
4:30 AM77 °FClear.No wind83%29.97 "Hg10 mi
3:50 AM77 °FClear.3 mph83%29.96 "Hg10 mi
3:30 AM79 °FClear.8 mph79%29.96 "Hg10 mi
3:10 AM77 °FClear.8 mph83%29.96 "Hg10 mi
2:50 AM77 °FClear.7 mph83%29.96 "Hg10 mi
2:30 AM77 °FClear.7 mph83%29.96 "Hg10 mi
2:10 AM77 °FClear.5 mph83%29.96 "Hg10 mi
1:50 AM77 °FClear.6 mph83%29.96 "Hg10 mi
1:30 AM77 °FClear.6 mph83%29.96 "Hg10 mi
1:10 AM73 °FClear.3 mph94%29.96 "Hg10 mi
12:50 AM73 °FClear.3 mph94%29.96 "Hg10 mi
12:30 AM72 °FClear.No wind100%29.96 "Hg10 mi
12:10 AM75 °FClear.No wind89%29.96 "Hg10 mi
11:50 PM
Fri, Jul 22
73 °FClear.No wind94%29.96 "Hg10 mi
11:30 PM77 °FClear.3 mph83%29.96 "Hg10 mi
11:10 PM73 °FClear.No wind94%29.96 "Hg10 mi
10:50 PM75 °FClear.No wind83%29.95 "Hg10 mi
10:30 PM77 °FClear.5 mph79%29.95 "Hg10 mi
10:10 PM79 °FClear.5 mph74%29.95 "Hg10 mi
9:50 PM79 °FClear.6 mph74%29.94 "Hg10 mi
9:10 PM82 °FSunny.7 mph62%29.93 "Hg10 mi
8:50 PM84 °FSunny.9 mph58%29.93 "Hg10 mi
8:30 PM82 °FSunny.8 mph62%29.93 "Hg10 mi
7:47 PM88 °FSunny.9 mph55%29.93 "Hg10 mi
6:47 PM91 °FSunny.9 mph49%29.93 "Hg10 mi
5:47 PM90 °FSunny.9 mph52%29.94 "Hg10 mi
4:47 PM93 °FSunny.12 mph41%29.94 "Hg10 mi
3:55 PM93 °FRain. Cloudy.13 mph47%29.96 "HgN/A
2:55 PM90 °FSunny.10 mph55%30.00 "Hg10 mi
1:47 PM90 °FSunny.12 mph52%30.02 "Hg10 mi
12:47 PM88 °FSunny.13 mph52%30.03 "Hg10 mi
11:55 AM88 °FSunny.8 mph52%30.04 "Hg10 mi
Weather by CustomWeather, © 2016

See weather overviewHow to use our weather pages